Main page
METAR-TAF:

METAR-TAF

Airports :

Bushehr, Iran

Bushehr Airport

latitude: 28-59N, longitude: 050-50E, elevation: 19 m

Current weather observation

The report was made 1 hour and 0 minutes ago, at 09:00 UTC
Wind 6 kt from the North/Northwest
Temperature 31°C
Humidity 38%
Pressure 1010 hPa
Visibility 10 km or more
no clouds below 1500 m and no cumulonimbus

METAR: OIBB 220900Z 33006KT CAVOK 31/15 Q1009 A2982

Time: 13:30 (10:00 UTC)


TAF: missing

Weather observations and forecasts of more than 4000 airports (METAR and TAF reports).

The available stations are represented by yellow and red dots on the map.

Hover mouse over dot to see the name of the station.

Then click to see weather observations and forecasts.

To change the map : click on the green buttons with a black cross to zoom in, on the green button with a dash to zoom out, or on the green arrows for adjacent maps.


METAR-TAF: